| time (UTC) | temp C | wind direction | speed KPH | gust KPH | rain 1hr cm | rain 24hr cm | rain mn cm | humidity % | barometer mb |
| 20260903230205 | 28 | 203 | 9.7 | 12.9 | 0.00 | 0.00 | 0.00 | 81 | 1011.8 |
| 20260903225705 | 28 | 210 | 11.3 | 14.5 | 0.00 | 0.00 | 0.00 | 81 | 1011.8 |
| 20260903225206 | 29 | 212 | 12.9 | 14.5 | 0.00 | 0.00 | 0.00 | 81 | 1011.8 |
| 20260903224704 | 29 | 218 | 11.3 | 19.3 | 0.00 | 0.00 | 0.00 | 81 | 1011.8 |
| 20260903224205 | 29 | 208 | 11.3 | 14.5 | 0.00 | 0.00 | 0.00 | 80 | 1011.8 |
| 20260903223705 | 29 | 206 | 11.3 | 12.9 | 0.00 | 0.00 | 0.00 | 80 | 1011.7 |
| 20260903223205 | 29 | 217 | 9.7 | 16.1 | 0.00 | 0.00 | 0.00 | 80 | 1011.7 |
| 20260903222705 | 29 | 207 | 9.7 | 14.5 | 0.00 | 0.00 | 0.00 | 80 | 1011.6 |
| 20260903221705 | 30 | 220 | 11.3 | 14.5 | 0.00 | 0.00 | 0.00 | 79 | 1011.7 |
| 20260903221205 | 30 | 209 | 9.7 | 14.5 | 0.00 | 0.00 | 0.00 | 79 | 1011.6 |
| 20260903220206 | 30 | 212 | 11.3 | 16.1 | 0.00 | 0.00 | 0.00 | 79 | 1011.7 |
| 20260903215705 | 30 | 202 | 11.3 | 14.5 | 0.00 | 0.00 | 0.00 | 78 | 1011.6 |
| 20260903214705 | 30 | 203 | 12.9 | 19.3 | 0.00 | 0.00 | 0.00 | 76 | 1011.7 |
| 20260903214205 | 30 | 203 | 12.9 | 19.3 | 0.00 | 0.00 | 0.00 | 76 | 1011.7 |
| 20260903213705 | 30 | 211 | 9.7 | 16.1 | 0.00 | 0.00 | 0.00 | 74 | 1011.7 |
| 20260903213205 | 31 | 204 | 14.5 | 19.3 | 0.00 | 0.00 | 0.00 | 75 | 1011.8 |
| 20260903212705 | 31 | 210 | 14.5 | 20.9 | 0.00 | 0.00 | 0.00 | 75 | 1011.9 |
| 20260903212205 | 31 | 193 | 11.3 | 16.1 | 0.00 | 0.00 | 0.00 | 74 | 1011.9 |
| 20260903211706 | 31 | 208 | 9.7 | 12.9 | 0.00 | 0.00 | 0.00 | 73 | 1012.0 |
| 20260903211205 | 31 | 196 | 11.3 | 16.1 | 0.00 | 0.00 | 0.00 | 73 | 1012.0 |
| 20260903210705 | 31 | 189 | 9.7 | 14.5 | 0.00 | 0.00 | 0.00 | 73 | 1012.0 |
| 20260903210205 | 32 | 208 | 9.7 | 12.9 | 0.00 | 0.00 | 0.00 | 73 | 1012.1 |
| 20260903205705 | 32 | 194 | 8.0 | 16.1 | 0.00 | 0.00 | 0.00 | 73 | 1012.0 |
| 20260903204705 | 32 | 183 | 14.5 | 19.3 | 0.00 | 0.00 | 0.00 | 73 | 1012.0 |
| 20260903204205 | 32 | 198 | 12.9 | 20.9 | 0.00 | 0.00 | 0.00 | 74 | 1012.0 |
| 20260903203705 | 32 | 175 | 9.7 | 16.1 | 0.00 | 0.00 | 0.00 | 73 | 1012.0 |
| 20260903203206 | 32 | 191 | 9.7 | 14.5 | 0.00 | 0.00 | 0.00 | 73 | 1012.1 |
| 20260903202705 | 32 | 197 | 11.3 | 14.5 | 0.00 | 0.00 | 0.00 | 73 | 1012.2 |
| 20260903202205 | 32 | 223 | 11.3 | 14.5 | 0.00 | 0.00 | 0.00 | 72 | 1012.3 |
| 20260903201705 | 32 | 216 | 14.5 | 19.3 | 0.00 | 0.00 | 0.00 | 72 | 1012.3 |
| 20260903201205 | 32 | 216 | 12.9 | 19.3 | 0.00 | 0.00 | 0.00 | 72 | 1012.5 |
| 20260903200705 | 31 | 228 | 11.3 | 14.5 | 0.00 | 0.00 | 0.00 | 75 | 1012.6 |
| 20260903200205 | 31 | 217 | 9.7 | 12.9 | 0.00 | 0.00 | 0.00 | 76 | 1012.8 |
| 20260903195704 | 31 | 224 | 9.7 | 12.9 | 0.00 | 0.00 | 0.00 | 73 | 1012.9 |
| 20260903195205 | 31 | 224 | 9.7 | 12.9 | 0.00 | 0.00 | 0.00 | 73 | 1012.9 |
| 20260903194705 | 32 | 235 | 11.3 | 19.3 | 0.00 | 0.00 | 0.00 | 72 | 1012.9 |
| 20260903193705 | 32 | 217 | 14.5 | 19.3 | 0.00 | 0.00 | 0.00 | 75 | 1012.9 |
| 20260903193205 | 32 | 207 | 16.1 | 20.9 | 0.00 | 0.00 | 0.00 | 76 | 1012.8 |
| 20260903192705 | 32 | 198 | 11.3 | 20.9 | 0.00 | 0.00 | 0.00 | 74 | 1012.9 |
| 20260903192205 | 32 | 217 | 14.5 | 19.3 | 0.00 | 0.00 | 0.00 | 78 | 1013.0 |
| 20260903191705 | 31 | 222 | 16.1 | 20.9 | 0.00 | 0.00 | 0.00 | 74 | 1013.1 |
| 20260903191205 | 31 | 209 | 11.3 | 16.1 | 0.00 | 0.00 | 0.00 | 73 | 1013.1 |
| 20260903190705 | 31 | 231 | 8.0 | 11.3 | 0.00 | 0.00 | 0.00 | 74 | 1013.2 |
| 20260903190205 | 31 | 225 | 11.3 | 12.9 | 0.00 | 0.03 | 0.00 | 75 | 1013.2 |
| 20260903185205 | 31 | 189 | 9.7 | 19.3 | 0.00 | 0.03 | 0.00 | 79 | 1013.1 |
| 20260903184705 | 31 | 194 | 14.5 | 16.1 | 0.00 | 0.03 | 0.00 | 77 | 1013.1 |
| 20260903184205 | 30 | 212 | 12.9 | 16.1 | 0.00 | 0.03 | 0.00 | 78 | 1013.1 |
| 20260903183705 | 30 | 229 | 11.3 | 19.3 | 0.00 | 0.03 | 0.00 | 78 | 1013.2 |
| 20260903183205 | 30 | 212 | 11.3 | 19.3 | 0.00 | 0.03 | 0.00 | 78 | 1013.4 |
| 20260903182705 | 30 | 231 | 11.3 | 16.1 | 0.00 | 0.03 | 0.00 | 78 | 1013.3 |
| 20260903182205 | 30 | 230 | 9.7 | 12.9 | 0.00 | 0.03 | 0.00 | 79 | 1013.5 |
| 20260903181705 | 30 | 236 | 12.9 | 19.3 | 0.00 | 0.03 | 0.00 | 78 | 1013.6 |
| 20260903181205 | 29 | 224 | 11.3 | 22.5 | 0.00 | 0.05 | 0.00 | 77 | 1013.6 |
| 20260903180705 | 29 | 229 | 9.7 | 16.1 | 0.00 | 0.08 | 0.00 | 79 | 1013.6 |
| 20260903180205 | 29 | 237 | 12.9 | 19.3 | 0.00 | 0.18 | 0.00 | 80 | 1013.7 |
| 20260903175705 | 29 | 239 | 14.5 | 19.3 | 0.00 | 0.25 | 0.00 | 83 | 1013.6 |
| 20260903174705 | 28 | 230 | 12.9 | 19.3 | 0.00 | 0.25 | 0.00 | 83 | 1013.7 |
| 20260903173705 | 28 | 229 | 9.7 | 20.9 | 0.00 | 0.25 | 0.00 | 81 | 1013.9 |
| 20260903173205 | 28 | 244 | 8.0 | 14.5 | 0.00 | 0.25 | 0.00 | 81 | 1014.2 |
| 20260903172705 | 28 | 273 | 8.0 | 14.5 | 0.00 | 0.25 | 0.00 | 83 | 1014.5 |
| 20260903172205 | 28 | 241 | 9.7 | 14.5 | 0.00 | 0.25 | 0.00 | 84 | 1014.3 |
| 20260903171705 | 28 | 231 | 12.9 | 19.3 | 0.00 | 0.25 | 0.00 | 85 | 1014.1 |
| 20260903171205 | 28 | 205 | 14.5 | 16.1 | 0.00 | 0.25 | 0.00 | 84 | 1014.1 |
| 20260903170704 | 28 | 220 | 9.7 | 14.5 | 0.00 | 0.25 | 0.00 | 84 | 1014.3 |
| 20260903170205 | 28 | 234 | 9.7 | 14.5 | 0.00 | 0.25 | 0.00 | 85 | 1014.6 |
| 20260903165705 | 28 | 212 | 11.3 | 16.1 | 0.00 | 0.25 | 0.00 | 84 | 1014.6 |
| 20260903165205 | 28 | 210 | 8.0 | 14.5 | 0.00 | 0.25 | 0.00 | 83 | 1014.7 |
| 20260903164705 | 28 | 239 | 4.8 | 8.0 | 0.00 | 0.25 | 0.00 | 84 | 1015.0 |
| 20260903164205 | 28 | 240 | 4.8 | 11.3 | 0.00 | 0.25 | 0.00 | 82 | 1015.6 |
| 20260903163705 | 28 | 248 | 3.2 | 14.5 | 0.00 | 0.25 | 0.00 | 82 | 1015.8 |
| 20260903163206 | 28 | 251 | 4.8 | 14.5 | 0.00 | 0.25 | 0.00 | 82 | 1015.8 |
| 20260903162705 | 28 | 271 | 4.8 | 11.3 | 0.00 | 0.25 | 0.00 | 82 | 1015.8 |
| 20260903162205 | 28 | 237 | 12.9 | 20.9 | 0.00 | 0.25 | 0.00 | 82 | 1015.5 |
| 20260903161705 | 28 | 220 | 19.3 | 22.5 | 0.00 | 0.25 | 0.00 | 82 | 1015.4 |
| 20260903161205 | 28 | 223 | 16.1 | 22.5 | 0.00 | 0.25 | 0.00 | 81 | 1015.6 |
| 20260903160705 | 28 | 232 | 17.7 | 32.2 | 0.00 | 0.25 | 0.00 | 82 | 1015.6 |
| 20260903160204 | 28 | 222 | 20.9 | 27.4 | 0.00 | 0.25 | 0.00 | 81 | 1015.5 |
| 20260903155205 | 29 | 217 | 20.9 | 27.4 | 0.00 | 0.25 | 0.00 | 83 | 1015.3 |
| 20260903154705 | 29 | 223 | 17.7 | 25.7 | 0.00 | 0.25 | 0.00 | 80 | 1015.3 |
| 20260903154205 | 29 | 223 | 19.3 | 24.1 | 0.00 | 0.25 | 0.00 | 82 | 1015.3 |
| 20260903153705 | 29 | 221 | 20.9 | 24.1 | 0.00 | 0.25 | 0.00 | 80 | 1015.4 |
| 20260903153205 | 29 | 212 | 20.9 | 27.4 | 0.00 | 0.25 | 0.00 | 79 | 1015.3 |
| 20260903152705 | 29 | 216 | 20.9 | 27.4 | 0.00 | 0.25 | 0.00 | 83 | 1015.1 |
| 20260903152205 | 28 | 227 | 20.9 | 27.4 | 0.00 | 0.25 | 0.00 | 83 | 1015.2 |
| 20260903151705 | 28 | 190 | 16.1 | 24.1 | 0.00 | 0.25 | 0.00 | 85 | 1015.1 |
| 20260903151205 | 28 | 208 | 14.5 | 19.3 | 0.00 | 0.25 | 0.00 | 85 | 1015.0 |
| 20260903150705 | 27 | 207 | 14.5 | 19.3 | 0.00 | 0.25 | 0.00 | 86 | 1015.1 |
| 20260903150204 | 27 | 202 | 11.3 | 19.3 | 0.00 | 0.25 | 0.00 | 85 | 1015.0 |
| 20260903145705 | 27 | 203 | 14.5 | 19.3 | 0.00 | 0.25 | 0.00 | 85 | 1015.1 |
| 20260903145205 | 27 | 208 | 14.5 | 19.3 | 0.00 | 0.25 | 0.00 | 86 | 1015.1 |
| 20260903144705 | 27 | 195 | 9.7 | 19.3 | 0.00 | 0.25 | 0.00 | 87 | 1015.0 |
| 20260903144204 | 27 | 198 | 9.7 | 19.3 | 0.00 | 0.25 | 0.00 | 86 | 1015.0 |
| 20260903143705 | 27 | 201 | 14.5 | 16.1 | 0.00 | 0.25 | 0.00 | 86 | 1015.0 |
| 20260903142705 | 27 | 204 | 9.7 | 16.1 | 0.00 | 0.25 | 0.00 | 86 | 1014.7 |
| 20260903142205 | 27 | 209 | 11.3 | 19.3 | 0.00 | 0.25 | 0.00 | 84 | 1014.5 |
| 20260903141705 | 27 | 176 | 14.5 | 24.1 | 0.00 | 0.25 | 0.00 | 84 | 1014.2 |
| 20260903141205 | 27 | 164 | 16.1 | 22.5 | 0.00 | 0.25 | 0.00 | 85 | 1014.4 |
| 20260903140205 | 26 | 178 | 14.5 | 22.5 | 0.00 | 0.25 | 0.00 | 88 | 1014.4 |
| 20260903135705 | 26 | 165 | 6.4 | 14.5 | 0.00 | 0.25 | 0.00 | 90 | 1015.0 |
| 20260903135205 | 26 | 182 | 9.7 | 12.9 | 0.00 | 0.25 | 0.00 | 91 | 1015.1 |
| 20260903134705 | 25 | 155 | 8.0 | 12.9 | 0.00 | 0.25 | 0.00 | 93 | 1015.0 |
| 20260903133705 | 25 | 156 | 6.4 | 14.5 | 0.00 | 0.25 | 0.00 | 93 | 1015.2 |
| 20260903132206 | 25 | 173 | 9.7 | 19.3 | 0.00 | 0.25 | 0.00 | 93 | 1015.3 |
| 20260903131705 | 24 | 165 | 8.0 | 12.9 | 0.00 | 0.25 | 0.00 | 93 | 1015.6 |
| 20260903131205 | 24 | 173 | 8.0 | 12.9 | 0.00 | 0.25 | 0.00 | 93 | 1015.6 |
| 20260903130705 | 24 | 174 | 4.8 | 8.0 | 0.00 | 0.25 | 0.00 | 93 | 1015.9 |
| 20260903130205 | 24 | 145 | 1.6 | 4.8 | 0.00 | 0.25 | 0.00 | 93 | 1016.0 |
| 20260903125705 | 24 | 119 | 3.2 | 4.8 | 0.00 | 0.25 | 0.00 | 93 | 1016.1 |
| 20260903124705 | 23 | 142 | 3.2 | 4.8 | 0.00 | 0.25 | 0.00 | 93 | 1016.2 |
| 20260903124205 | 23 | 61 | 1.6 | 4.8 | 0.00 | 0.25 | 0.00 | 93 | 1016.4 |
| 20260903123705 | 23 | 57 | 1.6 | 4.8 | 0.00 | 0.25 | 0.00 | 93 | 1016.6 |
| 20260903122705 | 23 | 36 | 1.6 | 4.8 | 0.00 | 0.25 | 0.00 | 93 | 1016.5 |
| 20260903122205 | 23 | 69 | 3.2 | 4.8 | 0.00 | 0.25 | 0.00 | 93 | 1016.4 |
| 20260903121704 | 23 | 56 | 3.2 | 4.8 | 0.00 | 0.25 | 0.00 | 93 | 1016.2 |
| 20260903121204 | 23 | 85 | 3.2 | 4.8 | 0.00 | 0.25 | 0.00 | 93 | 1016.2 |
| 20260903120704 | 23 | 89 | 4.8 | 9.7 | 0.00 | 0.25 | 0.00 | 93 | 1016.3 |
| 20260903115705 | 23 | 99 | 3.2 | 4.8 | 0.00 | 0.25 | 0.00 | 93 | 1016.3 |
| 20260903115205 | 23 | 29 | 4.8 | 11.3 | 0.00 | 0.25 | 0.00 | 93 | 1016.5 |
| 20260903114704 | 23 | 58 | 9.7 | 14.5 | 0.00 | 0.25 | 0.00 | 93 | 1016.4 |
| 20260903114204 | 23 | 58 | 8.0 | 12.9 | 0.00 | 0.25 | 0.00 | 93 | 1016.3 |
| 20260903113705 | 23 | 45 | 9.7 | 12.9 | 0.00 | 0.25 | 0.00 | 93 | 1016.5 |
| 20260903113205 | 23 | 63 | 6.4 | 11.3 | 0.00 | 0.25 | 0.00 | 93 | 1016.2 |
| 20260903112705 | 23 | 64 | 6.4 | 11.3 | 0.00 | 0.25 | 0.00 | 93 | 1016.3 |
| 20260903111205 | 23 | 57 | 8.0 | 12.9 | 0.00 | 0.25 | 0.00 | 93 | 1016.0 |
| 20260903110704 | 23 | 27 | 6.4 | 9.7 | 0.00 | 0.25 | 0.00 | 93 | 1015.9 |
| 20260903110205 | 23 | 356 | 4.8 | 11.3 | 0.00 | 0.25 | 0.00 | 93 | 1015.4 |
| 20260903105705 | 23 | 88 | 3.2 | 4.8 | 0.00 | 0.25 | 0.00 | 93 | 1015.0 |
| 20260903103705 | 23 | 153 | 4.8 | 11.3 | 0.00 | 0.25 | 0.00 | 93 | 1014.7 |
| 20260903103205 | 23 | 145 | 6.4 | 11.3 | 0.00 | 0.25 | 0.00 | 93 | 1014.7 |
| 20260903102705 | 23 | 149 | 4.8 | 11.3 | 0.00 | 0.25 | 0.00 | 93 | 1014.7 |
| 20260903102205 | 23 | 153 | 3.2 | 8.0 | 0.00 | 0.25 | 0.00 | 93 | 1014.8 |
| 20260903101705 | 23 | 144 | 3.2 | 4.8 | 0.00 | 0.25 | 0.00 | 93 | 1014.9 |
| 20260903101204 | 23 | 90 | 3.2 | 4.8 | 0.00 | 0.25 | 0.00 | 93 | 1014.9 |
| 20260903100705 | 23 | 99 | 4.8 | 12.9 | 0.00 | 0.25 | 0.00 | 94 | 1015.0 |
| 20260903095205 | 23 | 102 | 6.4 | 11.3 | 0.00 | 0.25 | 0.00 | 93 | 1015.1 |
| 20260903094704 | 23 | 78 | 4.8 | 8.0 | 0.00 | 0.25 | 0.00 | 93 | 1015.2 |
| 20260903094204 | 23 | 70 | 4.8 | 8.0 | 0.00 | 0.25 | 0.00 | 93 | 1015.2 |
| 20260903093704 | 23 | 76 | 4.8 | 8.0 | 0.00 | 0.25 | 0.00 | 93 | 1015.3 |
| 20260903093205 | 23 | 86 | 3.2 | 4.8 | 0.00 | 0.25 | 0.00 | 93 | 1015.2 |
| 20260903092205 | 23 | 65 | 4.8 | 8.0 | 0.00 | 0.25 | 0.00 | 93 | 1015.1 |
| 20260903091705 | 23 | 71 | 6.4 | 8.0 | 0.00 | 0.25 | 0.00 | 93 | 1015.2 |
| 20260903091204 | 23 | 73 | 4.8 | 8.0 | 0.00 | 0.25 | 0.00 | 93 | 1015.2 |
| 20260903090705 | 23 | 73 | 4.8 | 4.8 | 0.00 | 0.25 | 0.00 | 93 | 1015.1 |
| 20260903085705 | 23 | 96 | 6.4 | 9.7 | 0.00 | 0.25 | 0.00 | 93 | 1015.0 |
| 20260903084705 | 23 | 67 | 6.4 | 9.7 | 0.00 | 0.25 | 0.00 | 93 | 1015.0 |
| 20260903084205 | 24 | 63 | 4.8 | 9.7 | 0.00 | 0.25 | 0.00 | 94 | 1015.0 |
| 20260903083704 | 24 | 88 | 4.8 | 8.0 | 0.00 | 0.25 | 0.00 | 94 | 1015.0 |
| 20260903083204 | 24 | 113 | 3.2 | 9.7 | 0.00 | 0.25 | 0.00 | 94 | 1015.0 |
| 20260903082704 | 24 | 117 | 4.8 | 9.7 | 0.00 | 0.25 | 0.00 | 94 | 1015.1 |
| 20260903082204 | 23 | 93 | 3.2 | 8.0 | 0.00 | 0.25 | 0.00 | 93 | 1015.3 |
| 20260903081704 | 23 | 106 | 3.2 | 4.8 | 0.00 | 0.25 | 0.00 | 93 | 1015.3 |
| 20260903081205 | 23 | 93 | 4.8 | 8.0 | 0.00 | 0.25 | 0.00 | 93 | 1015.3 |
| 20260903080705 | 23 | 43 | 4.8 | 8.0 | 0.00 | 0.25 | 0.00 | 93 | 1015.3 |
| 20260903075705 | 24 | 75 | 4.8 | 4.8 | 0.00 | 0.25 | 0.00 | 94 | 1015.1 |
| 20260903075204 | 24 | 122 | 1.6 | 4.8 | 0.00 | 0.25 | 0.00 | 94 | 1015.1 |
| 20260903074704 | 24 | 109 | 1.6 | 4.8 | 0.00 | 0.25 | 0.00 | 94 | 1015.1 |
| 20260903074205 | 23 | 150 | 3.2 | 4.8 | 0.00 | 0.25 | 0.00 | 94 | 1015.0 |
| 20260903073705 | 23 | 118 | 3.2 | 4.8 | 0.00 | 0.25 | 0.00 | 94 | 1015.0 |
| 20260903073205 | 23 | 144 | 1.6 | 4.8 | 0.00 | 0.25 | 0.00 | 94 | 1015.0 |
| 20260903072704 | 23 | 155 | 3.2 | 4.8 | 0.00 | 0.25 | 0.00 | 94 | 1014.9 |
| 20260903072204 | 23 | 140 | 1.6 | 4.8 | 0.00 | 0.25 | 0.00 | 94 | 1014.8 |
| 20260903071705 | 23 | 145 | 3.2 | 4.8 | 0.00 | 0.25 | 0.00 | 94 | 1014.8 |
| 20260903070205 | 23 | 136 | 3.2 | 4.8 | 0.00 | 0.25 | 0.00 | 94 | 1014.8 |
| 20260903065705 | 23 | 137 | 3.2 | 11.3 | 0.00 | 0.25 | 0.00 | 94 | 1014.8 |
| 20260903065205 | 23 | 109 | 4.8 | 11.3 | 0.00 | 0.25 | 0.00 | 94 | 1014.8 |
| 20260903064705 | 23 | 113 | 1.6 | 4.8 | 0.00 | 0.25 | 0.00 | 94 | 1014.9 |
| 20260903063705 | 23 | 166 | 4.8 | 11.3 | 0.00 | 0.25 | 0.00 | 93 | 1014.7 |
| 20260903062705 | 23 | 182 | 4.8 | 9.7 | 0.00 | 0.25 | 0.00 | 94 | 1014.7 |
| 20260903062204 | 23 | 139 | 4.8 | 9.7 | 0.00 | 0.25 | 0.00 | 94 | 1014.7 |
| 20260903061705 | 23 | 181 | 4.8 | 9.7 | 0.00 | 0.25 | 0.00 | 94 | 1014.7 |
| 20260903060704 | 23 | 121 | 3.2 | 4.8 | 0.00 | 0.25 | 0.00 | 94 | 1015.0 |
| 20260903060204 | 23 | 149 | 3.2 | 8.0 | 0.00 | 0.25 | 0.00 | 94 | 1015.0 |
| 20260903055705 | 23 | 112 | 4.8 | 9.7 | 0.00 | 0.25 | 0.00 | 94 | 1015.0 |
| 20260903055204 | 23 | 135 | 3.2 | 11.3 | 0.00 | 0.25 | 0.00 | 94 | 1015.1 |
| 20260903054705 | 23 | 149 | 3.2 | 8.0 | 0.00 | 0.25 | 0.00 | 94 | 1015.1 |
| 20260903053704 | 23 | 90 | 3.2 | 9.7 | 0.00 | 0.25 | 0.00 | 94 | 1015.2 |
| 20260903053204 | 23 | 123 | 6.4 | 11.3 | 0.00 | 0.25 | 0.00 | 94 | 1015.1 |
| 20260903052704 | 23 | 147 | 3.2 | 4.8 | 0.00 | 0.25 | 0.00 | 94 | 1015.1 |
| 20260903052205 | 23 | 102 | 1.6 | 4.8 | 0.00 | 0.25 | 0.00 | 94 | 1015.2 |
| 20260903051704 | 23 | 135 | 3.2 | 8.0 | 0.00 | 0.25 | 0.00 | 94 | 1015.2 |
| 20260903051205 | 23 | 142 | 3.2 | 4.8 | 0.00 | 0.25 | 0.00 | 94 | 1015.0 |
| 20260903050704 | 23 | 88 | 3.2 | 4.8 | 0.00 | 0.25 | 0.00 | 94 | 1015.1 |
| 20260903050204 | 23 | 111 | 3.2 | 4.8 | 0.00 | 0.25 | 0.00 | 94 | 1015.1 |
| 20260903045705 | 23 | 95 | 4.8 | 4.8 | 0.00 | 0.25 | 0.00 | 94 | 1015.4 |
| 20260903045204 | 23 | 97 | 4.8 | 4.8 | 0.00 | 0.25 | 0.00 | 93 | 1015.4 |
| 20260903044704 | 23 | 74 | 3.2 | 4.8 | 0.00 | 0.25 | 0.00 | 93 | 1015.7 |
| 20260903044205 | 23 | 90 | 3.2 | 4.8 | 0.00 | 0.25 | 0.00 | 93 | 1015.7 |
| 20260903043705 | 23 | 48 | 1.6 | 3.2 | 0.00 | 0.25 | 0.00 | 93 | 1015.7 |
| 20260903043204 | 23 | 16 | 3.2 | 4.8 | 0.00 | 0.25 | 0.00 | 93 | 1015.7 |
| 20260903042705 | 23 | 67 | 1.6 | 4.8 | 0.00 | 0.25 | 0.00 | 93 | 1015.8 |
| 20260903042204 | 23 | 90 | 3.2 | 4.8 | 0.00 | 0.25 | 0.00 | 93 | 1015.5 |
| 20260903041704 | 23 | 44 | 1.6 | 4.8 | 0.00 | 0.25 | 0.00 | 93 | 1015.5 |
| 20260903040705 | 23 | 109 | 0.0 | 3.2 | 0.00 | 0.25 | 0.00 | 94 | 1015.3 |
| 20260903040205 | 23 | 113 | 1.6 | 4.8 | 0.00 | 0.25 | 0.00 | 94 | 1015.2 |
| 20260903035204 | 22 | 99 | 3.2 | 4.8 | 0.00 | 0.25 | 0.25 | 93 | 1015.3 |
| 20260903034704 | 22 | 137 | 1.6 | 3.2 | 0.00 | 0.25 | 0.25 | 93 | 1015.6 |
| 20260903034205 | 22 | 91 | 1.6 | 3.2 | 0.00 | 0.25 | 0.25 | 93 | 1015.5 |
| 20260903033204 | 22 | 78 | 3.2 | 4.8 | 0.00 | 0.25 | 0.25 | 93 | 1015.7 |
| 20260903032204 | 22 | 111 | 0.0 | 3.2 | 0.00 | 0.25 | 0.25 | 92 | 1015.7 |
| 20260903031705 | 22 | 111 | 1.6 | 3.2 | 0.00 | 0.25 | 0.25 | 92 | 1015.6 |
| 20260903031204 | 22 | 23 | 1.6 | 3.2 | 0.00 | 0.25 | 0.25 | 92 | 1016.0 |
| 20260903030705 | 22 | 79 | 1.6 | 3.2 | 0.00 | 0.25 | 0.25 | 92 | 1015.9 |
| 20260903030204 | 22 | 79 | 0.0 | 3.2 | 0.00 | 0.25 | 0.25 | 92 | 1016.0 |
| 20260903025704 | 22 | 78 | 3.2 | 4.8 | 0.00 | 0.25 | 0.25 | 92 | 1015.8 |
| 20260903025204 | 22 | 84 | 3.2 | 4.8 | 0.00 | 0.25 | 0.25 | 92 | 1015.8 |
| 20260903024705 | 22 | 48 | 0.0 | 3.2 | 0.00 | 0.25 | 0.25 | 92 | 1015.8 |
| 20260903023204 | 22 | 122 | 3.2 | 4.8 | 0.00 | 0.25 | 0.25 | 93 | 1015.7 |
| 20260903022705 | 22 | 126 | 4.8 | 4.8 | 0.00 | 0.25 | 0.25 | 92 | 1015.7 |
| 20260903022205 | 22 | 108 | 1.6 | 4.8 | 0.00 | 0.25 | 0.25 | 91 | 1015.8 |
| 20260903021704 | 22 | 5 | 1.6 | 4.8 | 0.00 | 0.25 | 0.25 | 91 | 1015.9 |
| 20260903021205 | 22 | 90 | 0.0 | 3.2 | 0.00 | 0.25 | 0.25 | 91 | 1015.8 |
| 20260903020705 | 22 | 102 | 1.6 | 4.8 | 0.00 | 0.25 | 0.25 | 91 | 1015.9 |
| 20260903020206 | 22 | 15 | 1.6 | 4.8 | 0.00 | 0.25 | 0.25 | 92 | 1015.7 |
| 20260903015704 | 22 | 114 | 1.6 | 3.2 | 0.00 | 0.25 | 0.25 | 92 | 1015.8 |
| 20260903014704 | 22 | 119 | 1.6 | 3.2 | 0.00 | 0.25 | 0.25 | 93 | 1015.5 |
| 20260903014204 | 22 | 119 | 1.6 | 4.8 | 0.00 | 0.25 | 0.25 | 93 | 1015.4 |
| 20260903013704 | 22 | 114 | 1.6 | 3.2 | 0.00 | 0.25 | 0.25 | 92 | 1015.6 |
| 20260903012704 | 22 | 85 | 0.0 | 0.0 | 0.00 | 0.25 | 0.25 | 91 | 1016.0 |
| 20260903011705 | 22 | 85 | 0.0 | 0.0 | 0.00 | 0.25 | 0.25 | 91 | 1016.1 |
| 20260903010704 | 22 | 65 | 3.2 | 4.8 | 0.00 | 0.25 | 0.25 | 91 | 1016.0 |
| 20260903010205 | 23 | 69 | 3.2 | 4.8 | 0.00 | 0.25 | 0.25 | 92 | 1015.9 |
| 20260903005704 | 23 | 84 | 3.2 | 4.8 | 0.00 | 0.25 | 0.25 | 92 | 1015.7 |
| 20260903005204 | 23 | 83 | 3.2 | 4.8 | 0.00 | 0.25 | 0.25 | 92 | 1015.7 |
| 20260903004705 | 22 | 97 | 3.2 | 4.8 | 0.00 | 0.25 | 0.25 | 92 | 1015.7 |
| 20260903004204 | 22 | 92 | 3.2 | 4.8 | 0.00 | 0.25 | 0.25 | 91 | 1015.7 |
| 20260903003704 | 22 | 96 | 3.2 | 4.8 | 0.00 | 0.25 | 0.25 | 91 | 1015.6 |
| 20260903003205 | 22 | 72 | 3.2 | 8.0 | 0.00 | 0.25 | 0.25 | 90 | 1015.7 |
| 20260903002704 | 22 | 64 | 4.8 | 4.8 | 0.00 | 0.25 | 0.25 | 90 | 1015.6 |
| 20260903002204 | 22 | 74 | 3.2 | 4.8 | 0.00 | 0.25 | 0.25 | 90 | 1015.6 |
| 20260903000704 | 23 | 85 | 3.2 | 4.8 | 0.00 | 0.25 | 0.25 | 90 | 1015.6 |
| 20260902235704 | 23 | 85 | 3.2 | 4.8 | 0.00 | 0.25 | 0.25 | 90 | 1015.4 |
| 20260902235204 | 23 | 22 | 1.6 | 4.8 | 0.00 | 0.25 | 0.25 | 90 | 1015.5 |
| 20260902234204 | 23 | 66 | 1.6 | 3.2 | 0.00 | 0.25 | 0.25 | 90 | 1015.5 |
| 20260902233704 | 23 | 87 | 3.2 | 4.8 | 0.00 | 0.25 | 0.25 | 90 | 1015.6 |
| 20260902233205 | 23 | 87 | 1.6 | 4.8 | 0.00 | 0.25 | 0.25 | 90 | 1015.7 |
| 20260902232705 | 23 | 87 | 1.6 | 3.2 | 0.00 | 0.25 | 0.25 | 90 | 1015.7 |
| 20260902231704 | 23 | 87 | 1.6 | 3.2 | 0.00 | 0.25 | 0.25 | 90 | 1015.8 |